Regional Weather Roundup
Issued by NWS

Home | Current Version | Previous Version | Text Only | Print | Product List | Glossary On
Versions: 1 2 3 4 5 6 7 8 9 10 11 12 13 14 15 16 17 18 19 20 21 22 23 24 25 26 27 28 29 30 31 32 33 34 35 36 37 38 39 40 41 42 43 44 45 46 47 48 49 50
000
ASUS46 KSEW 020610
RWRWA

WASHINGTON REGIONAL WEATHER ROUNDUP
NATIONAL WEATHER SERVICE SEATTLE WA
1100 PM PDT SUN MAY 01 2016

NOTE:"FAIR" INDICATES FEW OR NO CLOUDS BELOW 12,000 FEET WITH NO
SIGNIFICANT WEATHER AND/OR OBSTRUCTIONS TO VISIBILITY.

WAZ505-507>509-020700-
SEATTLE, TACOMA, EVERETT, AND VICINITY

CITY           SKY/WX    TMP DP  RH WIND       PRES   REMARKS
EVERETT        CLEAR     66  42  41 E5        29.97S
6HR MIN TEMP:  62; 6HR MAX TEMP:  71;

BOEING FIELD   CLEAR     65  47  52 NW3       29.94S
6HR MIN TEMP:  65; 6HR MAX TEMP:  76;

RENTON         CLEAR     61  50  67 CALM      29.94S
6HR MIN TEMP:  61; 6HR MAX TEMP:  77;

SEATAC AIRPORT CLEAR     71  41  33 E10       29.96S
6HR MIN TEMP:  69; 6HR MAX TEMP:  79;

JBLM-MCCHORD   CLEAR     57  46  67 CALM      29.94S
6HR MIN TEMP:  53; 6HR MAX TEMP:  77;

PUYALLUP         N/A     55  50  82 CALM      29.95S
BREMERTON      CLEAR     64  39  39 NE9       29.97F
6HR MIN TEMP:  64; 6HR MAX TEMP:  77;

JBLM-FT LEWIS  CLEAR     57  46  66 VRB1      29.93S
6HR MIN TEMP:  57; 6HR MAX TEMP:  78; 6HR PCP: TRACE;

TACOMA NARROWS CLEAR     65  43  44 N3        29.94F
6HR MIN TEMP:  65; 6HR MAX TEMP:  75;

$$

WAZ001-503-506-510-514-515-020700-
NORTH INTERIOR

CITY           SKY/WX    TMP DP  RH WIND       PRES   REMARKS
BELLINGHAM     CLEAR     55  50  83 CALM      29.95R
6HR MIN TEMP:  54; 6HR MAX TEMP:  72;

FRIDAY HARBOR  CLEAR     50  42  74 CALM      29.96S
6HR MIN TEMP:  50; 6HR MAX TEMP:  73;

EASTSOUND      CLEAR     54  48  82 CALM      29.94R HAZE
PORT ANGELES   CLEAR     52  44  74 SW5       29.95S
6HR MIN TEMP:  51; 6HR MAX TEMP:  71;

EDIZ HOOK      FAIR      54  48  81 S8        29.95S
6HR MIN TEMP:  54; 6HR MAX TEMP:  63;

PORT TOWNSEND  FAIR      50  46  87 CALM      29.97R
NAS WHIDBEY    CLEAR     51  48  89 CALM      29.99R
6HR MIN TEMP:  51; 6HR MAX TEMP:  62;

ARLINGTON      CLEAR     55  43  62 CALM      29.97S
6HR MIN TEMP:  55; 6HR MAX TEMP:  73;

BURLINGTON     CLEAR     59  50  72 NE6       29.96R
$$

WAZ020-022-039-040-504-511-512-020700-
SOUTHWEST INTERIOR

CITY           SKY/WX    TMP DP  RH WIND       PRES   REMARKS
SHELTON        CLEAR     52  44  74 CALM      29.92S
6HR MIN TEMP:  51; 6HR MAX TEMP:  79;

OLYMPIA        CLEAR     55  43  63 CALM      29.93F
6HR MIN TEMP:  54; 6HR MAX TEMP:  79;

CHEHALIS       FAIR      57  50  77 CALM      29.93R
KELSO          CLEAR     61  46  59 CALM      29.93F
6HR MIN TEMP:  61; 6HR MAX TEMP:  82;

VANCOUVER      CLEAR     63  44  50 W5        29.90R
6HR MIN TEMP:  63; 6HR MAX TEMP:  81;

SCAPPOOSE, OR  CLEAR     55  47  74 W5        29.90R
6HR MIN TEMP:  55; 6HR MAX TEMP:  80;

PORTLAND, OR   CLEAR     68  41  37 SE9       29.90R
6HR MIN TEMP:  67; 6HR MAX TEMP:  82;

$$

WAZ021-516-517-020700-
WASHINGTON COAST

CITY           SKY/WX    TMP DP  RH WIND       PRES   REMARKS
FORKS          CLEAR     54  45  71 CALM      29.92S
6HR MIN TEMP:  53; 6HR MAX TEMP:  74;

HOQUIAM        CLEAR     65  45  48 NE5       29.90S
6HR MIN TEMP:  64; 6HR MAX TEMP:  80;

ASTORIA, OR    CLEAR     59  50  72 CALM      29.87S
6HR MIN TEMP:  58; 6HR MAX TEMP:  81;

$$

WAZ019-023-024-040-518-519-020700-
CASCADE MOUNTAINS AND COLUMBIA GORGE

CITY           SKY/WX    TMP DP  RH WIND       PRES   REMARKS
STAMPEDE PASS  CLEAR     49  33  54 CALM      30.10F
6HR MIN TEMP:  49; 6HR MAX TEMP:  60;

TROUTDALE, OR  CLEAR     69  41  36 E13       29.90S
6HR MIN TEMP:  69; 6HR MAX TEMP:  81;

THE DALLES, OR CLEAR     61  40  45 E5        29.99S
6HR MIN TEMP:  59; 6HR MAX TEMP:  82;

$$

WAZ026-027-041>044-520-521-020700-
EAST SLOPES

CITY           SKY/WX    TMP DP  RH WIND       PRES   REMARKS
OMAK           CLEAR     59  39  47 W8        30.05S
6HR MIN TEMP:  57; 6HR MAX TEMP:  78;

WENATCHEE      CLEAR     62  38  40 W6        30.03S
6HR MIN TEMP:  62; 6HR MAX TEMP:  78;

ELLENSBURG     CLEAR     57  40  52 SW3       30.05R
6HR MIN TEMP:  53; 6HR MAX TEMP:  77;

YAKIMA         CLEAR     53  39  59 W7        30.04R
6HR MIN TEMP:  53; 6HR MAX TEMP:  80;

$$

WAZ028-034-035-020700-
COLUMBIA BASIN

CITY           SKY/WX    TMP DP  RH WIND       PRES   REMARKS
EPHRATA        CLEAR     61  40  45 NW10      30.02S
6HR MIN TEMP:  61; 6HR MAX TEMP:  76;

MOSES LAKE     CLEAR     54  43  66 N7        30.03R
6HR MIN TEMP:  53; 6HR MAX TEMP:  78;

PASCO          CLEAR     53  45  74 NW5       30.00R
6HR MIN TEMP:  53; 6HR MAX TEMP:  79;

HERMISTON, OR  CLEAR     56  44  64 CALM      29.99S
6HR MIN TEMP:  55; 6HR MAX TEMP:  78;

$$

WAZ036>038-020700-
NORTHEAST WASHINGTON

CITY           SKY/WX    TMP DP  RH WIND       PRES   REMARKS
SPOKANE GEIGER CLEAR     59  39  47 CALM      30.06S
6HR MIN TEMP:  59; 6HR MAX TEMP:  73;

SPOKANE FELTS  CLEAR     52  43  71 NE3       30.07R
6HR MIN TEMP:  52; 6HR MAX TEMP:  76;

FAIRCHILD AFB  CLEAR     57  36  45 NE6       30.06S
6HR MIN TEMP:  57; 6HR MAX TEMP:  70;

COEURDALENE,ID CLEAR     54  43  66 SE7       30.06R
6HR MIN TEMP:  54; 6HR MAX TEMP:  73;

DEER PARK      CLEAR     49  39  68 CALM      30.07S
6HR MIN TEMP:  46; 6HR MAX TEMP:  73;

$$

WAZ029>033-020700-
SOUTHEAST WASHINGTON

CITY           SKY/WX    TMP DP  RH WIND       PRES   REMARKS
PULLMAN        CLEAR     52  45  77 CALM      30.09S
6HR MIN TEMP:  50; 6HR MAX TEMP:  70;

LEWISTON, ID   CLEAR     56  46  69 S6        30.04S
6HR MIN TEMP:  56; 6HR MAX TEMP:  74;

WALLA WALLA    CLEAR     57  47  69 E7        30.01R
6HR MIN TEMP:  56; 6HR MAX TEMP:  74;

PENDLETON, OR  CLEAR     52  41  66 E7        30.01S
6HR MIN TEMP:  52; 6HR MAX TEMP:  74;

$$



USA.gov is the U.S. government's official web portal to all federal, state and local government web resources and services.